CAPE
0 0 0 0 0 0 0 0 0 0 0 0 0 0 0 0 0 0 0 0 0 0 0 0 0 5 2 7 4 4 0 0 0 0 0 0 0 0 0 0 0 0 0 0
0 0 0 0 0 0 0 0 0 0 0 0 0 0 0 0 0 0 0 0 0 0 0 0 0 0 0 0 0 2 9 1 0 0 0 0 0 0 0 0 0 0 0 0
0 1 0 0 1 1 0 0 0 0 0 0 0 0 0 0 0 0 0 0 0 0 0 0 0 0 0 0 0 0 0 2 4 1 0 0 0 0 0 0 0 0 0 0
0 0 0 0 0 0 0 0 0 0 0 0 0 0 0 0 0 0 0 0 0 0 0 0 0 0 0 0 0 0 0 0 0 0 0 2 0 0 0 0 0 0 0 0
1 1 0 0 1 0 2 0 1 1 0 0 1 0 0 0 0 0 0 0 0 0 0 0 0 0 0 0 0 0 0 0 0 0 0 0 2 0 1 1 0 1 0 0
1 0 0 1 0 0 1 0 0 3 0 0 0 0 0 0 0 0 0 0 0 0 0 0 0 0 0 0 0 0 0 0 0 0 0 0 0 0 0 0 0 0 0 0
1 0 0 0 3 4 2 0 0 0 0 0 0 0 0 0 0 0 0 0 0 0 0 0 0 0 0 0 0 0 0 0 0 0 0 0 0 0 0 0 0 0 0 0
1 0 0 0 0 0 0 0 0 0 0 0 0 0 0 0 0 0 0 0 0 0 0 0 0 0 0 0 0 0 0 0 0 0 0 0 0 0 0 0 0 0 0 0
0 0 0 0 0 0 0 0 0 0 0 0 0 0 0 0 0 0 0 0 0 0 0 0 0 0 0 0 0 0 0 0 0 0 0 0 0 0 0 0 0 0 0 0
0 0 0 0 0 0 0 0 0 0 0 0 0 0 0 0 0 0 0 0 0 0 0 0 0 0 0 0 0 0 0 0 0 0 0 0 0 0 0 0 0 0 0 0
0 0 0 0 0 0 0 0 0 0 0 0 0 0 0 0 0 0 0 0 0 0 0 0 0 0 0 0 0 0 0 0 0 0 0 0 0 0 0 0 0 0 0 0
0 0 0 0 0 0 0 0 0 0 0 0 0 0 0 0 0 0 0 0 0 0 0 0 0 0 0 0 0 0 0 0 0 0 0 0 0 0 0 0 0 0 0 0
0 0 0 0 0 0 0 0 0 0 0 0 0 0 0 0 0 0 0 0 0 0 0 0 0 0 0 0 0 0 0 0 0 0 0 0 0 0 0 0 0 0 0 0
0 0 0 0 0 0 0 0 0 0 0 0 0 0 0 0 0 0 0 0 0 0 0 0 0 0 0 0 0 0 0 0 0 0 0 0 0 0 0 0 0 0 0 0
0 0 0 0 0 0 0 0 0 0 0 0 0 0 0 0 0 0 0 0 0 0 0 0 0 0 0 0 0 0 0 0 0 0 0 0 0 0 0 0 0 0 0 0
0 0 0 0 0 0 0 0 0 0 0 0 0 0 0 0 0 0 0 0 0 0 0 0 0 0 0 0 0 0 0 0 0 0 0 0 0 0 0 0 0 0 0 0
0 0 0 0 0 0 0 0 0 0 0 0 0 0 0 0 0 0 0 0 0 0 0 0 0 0 0 0 0 0 0 0 0 0 0 0 0 0 0 0 0 0 0 0
0 0 0 0 0 0 0 0 0 0 0 0 0 0 0 0 0 0 0 0 0 0 0 0 0 0 0 0 0 0 0 0 0 0 0 0 0 0 0 0 0 0 0 0
0 0 0 0 0 0 0 0 0 0 0 0 0 0 0 0 0 0 0 0 0 0 0 0 0 0 0 0 0 0 0 0 0 0 0 0 0 0 0 0 0 0 0 0
0 0 0 0 0 0 0 0 0 0 0 0 0 0 0 0 0 0 0 0 0 0 0 0 0 0 0 0 0 0 0 0 0 0 0 0 0 0 0 0 0 0 0 0
0 0 0 0 0 0 0 0 0 0 0 0 0 0 0 0 0 0 0 0 0 0 0 0 0 0 0 0 0 0 0 0 0 0 0 0 0 0 0 0 0 0 0 0
0 0 0 0 0 0 0 0 0 0 0 0 0 0 0 0 0 0 0 0 0 0 0 0 0 0 0 0 0 0 0 0 0 0 0 0 0 0 0 0 0 0 0 0
0 0 0 0 0 0 0 0 0 0 0 0 0 0 0 0 0 0 0 0 0 0 0 0 0 0 0 0 0 0 0 0 0 0 0 0 0 0 0 0 0 0 0 0
0 0 0 0 0 0 0 0 0 0 0 0 0 0 0 0 0 0 0 0 0 0 0 0 0 0 0 0 0 0 0 0 0 0 0 0 0 0 0 0 0 0 0 0
0 0 0 0 0 0 0 0 0 0 0 0 0 0 0 0 0 0 0 0 0 0 0 0 0 0 0 0 0 0 0 0 0 0 0 0 0 0 0 0 0 0 0 0
0 0 0 0 0 0 0 0 0 0 0 0 0 0 0 0 0 0 0 0 0 0 0 0 0 0 0 0 0 0 0 0 0 0 0 0 0 0 0 0 0 0 1 2
CIN
0 0 0 0 0 0 0 0 0 0 0 0 0 0 0 0 0 0 0 0 0 0 0 0 -1 -25 -17 -12 -20 -18 0 0 0 0 0 0 0 0 0 0 0 0 0 0
0 0 0 0 0 -4 0 0 0 0 0 0 0 0 0 0 0 0 0 0 0 0 0 0 0 0 0 0 0 -5 -15 -6 0 0 0 0 0 0 0 0 0 0 0 0
0 0 0 0 0 0 -1 0 0 0 0 0 0 0 0 0 0 0 0 0 0 0 0 0 0 0 0 0 0 0 0 -6 -16 -16 0 0 0 0 0 0 0 0 0 0
0 0 0 0 0 0 0 0 0 0 0 0 0 0 0 0 0 0 0 0 0 0 0 0 0 0 0 0 0 0 0 0 0 0 -4 -9 -5 -2 -3 -9 0 0 0 0
0 0 0 0 0 0 0 0 0 0 0 0 0 0 0 0 0 0 0 0 0 0 0 0 0 0 0 0 0 0 0 0 0 0 0 0 -3 -5 -3 -4 -2 -4 0 0
0 0 0 0 0 0 -4 0 0 0 0 0 0 0 0 0 0 0 0 0 0 0 0 0 0 0 0 0 0 0 0 0 0 0 0 0 0 0 0 0 -1 0 0 0
0 0 0 0 0 0 -1 0 0 0 0 0 0 0 0 0 0 0 0 0 0 0 0 0 0 0 0 0 0 0 0 0 0 0 0 0 0 0 0 0 0 0 0 0
0 0 0 0 0 0 -1 0 0 0 0 0 0 0 0 0 0 0 0 0 0 0 0 0 0 0 0 0 0 0 0 0 0 0 0 0 0 0 0 0 0 0 0 0
0 0 0 0 0 0 0 0 0 0 0 0 0 0 0 0 0 0 0 0 0 0 0 0 0 0 0 0 0 0 0 0 0 0 0 0 0 0 0 0 0 0 0 0
0 0 0 0 0 0 0 0 0 0 0 0 0 0 0 0 0 0 0 0 0 0 0 0 0 0 0 0 0 0 0 0 0 0 0 0 0 0 0 0 0 0 0 0
0 0 0 0 0 0 0 0 0 0 0 0 0 0 0 0 0 0 0 0 0 0 0 0 0 0 0 0 0 0 0 0 0 0 0 0 0 0 0 0 0 0 0 0
0 0 0 0 0 0 0 0 0 0 0 0 0 0 0 0 0 0 0 0 0 0 0 0 0 0 0 0 0 0 0 0 0 0 0 0 0 0 0 0 0 0 0 0
0 0 0 0 0 0 0 0 0 0 0 0 0 0 0 0 0 0 0 0 0 0 0 0 0 0 0 0 0 0 0 0 0 0 0 0 0 0 0 0 0 0 0 0
0 0 0 0 0 0 0 0 0 0 0 0 0 0 0 0 0 0 0 0 0 0 0 0 0 0 0 0 0 0 0 0 0 0 0 0 0 0 0 0 0 0 0 0
0 0 0 0 0 0 0 0 0 0 0 0 0 0 0 0 0 0 0 0 0 0 0 0 0 0 0 0 0 0 0 0 0 0 0 0 0 0 0 0 0 0 0 0
0 0 0 0 0 0 0 0 0 0 0 0 0 0 0 0 0 0 0 0 0 0 0 0 0 0 0 0 0 0 0 0 0 0 0 0 0 0 0 0 0 0 0 0
0 0 0 0 0 0 0 0 0 0 0 0 0 0 0 0 0 0 0 0 0 0 0 0 0 0 0 0 0 0 0 0 0 0 0 0 0 0 0 0 0 0 0 0
0 0 0 0 0 0 0 0 0 0 0 0 0 0 0 0 0 0 0 0 0 0 0 0 0 0 0 0 0 0 0 0 0 0 0 0 0 0 0 0 0 0 0 0
0 0 0 0 0 0 0 0 0 0 0 0 0 0 0 0 0 0 0 0 0 0 0 0 0 0 0 0 0 0 0 0 0 0 0 0 0 0 0 0 0 0 0 0
0 0 0 0 0 0 0 0 0 0 0 0 0 0 0 0 0 0 0 0 0 0 0 0 0 0 0 0 0 0 0 0 0 0 0 0 0 0 0 0 0 0 0 0
0 0 0 0 0 0 0 0 0 0 0 0 0 0 0 0 0 0 0 0 0 0 0 0 0 0 0 0 0 0 0 0 0 0 0 0 0 0 0 0 0 0 0 0
0 0 0 0 0 0 0 0 0 0 0 0 0 0 0 0 0 0 0 0 0 0 0 0 0 0 0 0 0 0 0 0 0 0 0 0 0 0 0 0 0 0 0 0
0 0 0 0 0 0 0 0 0 0 0 0 0 0 0 0 0 0 0 0 0 0 0 0 0 0 0 0 0 0 0 0 0 0 0 0 0 0 0 0 0 0 0 0
0 0 0 0 0 0 0 0 0 0 0 0 0 0 0 0 0 0 0 0 0 0 0 0 0 0 0 0 0 0 0 0 0 0 0 0 0 0 0 0 0 0 0 0
0 0 0 0 0 0 0 0 0 0 0 0 0 0 0 0 0 0 0 0 0 0 0 0 0 0 0 0 0 0 0 0 0 0 0 0 0 0 0 0 0 0 0 0
0 0 0 0 0 0 0 0 0 0 0 0 0 0 0 0 0 0 0 0 0 0 0 0 0 0 0 0 0 0 0 0 0 0 0 0 0 0 0 0 0 0 -1 -1
Wind_Speed
21 23 29 27 28 27 26 26 29 21 23 23 21 18 18 15 16 17 16 14 14 14 15 16 17 14 15 14 15 16 15 13 13 17 20 22 23 22 24 24 25 25 24 24
22 23 24 24 26 28 21 20 22 21 21 22 19 19 17 16 17 16 16 15 15 14 16 17 16 15 16 17 20 18 16 14 14 16 20 21 23 24 24 26 27 27 25 25
24 23 23 22 24 22 20 18 20 24 19 20 17 19 18 18 17 16 16 16 17 17 17 17 18 19 19 20 21 21 21 20 19 16 18 20 22 24 27 28 28 27 24 25
20 22 21 19 21 23 22 19 14 15 20 25 23 30 22 17 17 15 14 14 12 10 10 12 14 16 17 18 19 19 21 22 23 23 23 24 26 30 29 30 28 28 26 25
23 20 20 18 21 18 18 14 12 14 18 20 24 24 24 15 17 14 11 7 7 8 10 12 13 15 17 19 20 21 22 23 24 24 25 27 29 30 31 32 34 32 30 27
18 18 19 20 18 12 9 7 8 14 17 29 26 26 24 19 16 12 7 5 5 7 9 11 13 15 17 19 20 22 23 25 26 26 27 28 30 33 35 36 37 37 36 34
17 16 16 16 12 13 14 14 20 23 25 27 19 23 23 18 10 7 4 2 4 7 9 11 13 16 18 20 22 24 25 27 28 29 29 30 31 33 35 37 38 39 39 38
23 23 19 18 18 21 21 22 23 27 26 22 19 25 23 12 7 5 4 4 5 7 8 11 14 16 19 22 23 25 26 27 28 30 31 31 32 34 36 37 38 40 40 40
23 23 19 14 15 17 21 22 20 20 20 22 22 23 18 10 9 8 8 7 8 8 9 11 15 18 20 22 23 24 26 27 28 30 31 32 33 36 37 39 39 40 41 41
17 20 19 18 16 16 16 16 20 20 24 27 26 26 22 15 14 12 10 9 8 8 9 12 15 17 18 20 21 23 25 27 28 30 32 33 35 36 37 38 40 41 41 42
13 17 18 16 20 17 16 20 19 19 20 24 26 26 17 12 11 11 9 8 9 9 10 12 13 14 16 18 19 22 25 29 30 30 31 32 34 35 36 37 38 39 39 40
12 13 16 17 16 17 19 20 18 23 23 22 22 24 19 8 10 10 8 7 8 6 7 7 9 12 14 15 17 21 23 26 26 26 28 30 32 34 35 36 37 38 40 40
13 15 17 20 21 18 20 20 19 20 19 23 25 22 18 9 5 8 8 6 4 3 5 8 8 9 10 12 15 19 21 23 25 26 28 28 29 32 34 35 37 39 41 43
15 17 19 23 19 17 21 21 20 20 25 24 23 21 16 10 5 7 7 4 3 0 4 7 8 7 9 11 14 19 21 23 26 28 30 31 30 32 35 36 37 39 40 43
17 23 21 21 21 20 20 21 20 21 21 23 23 20 17 8 3 8 6 5 3 2 5 7 9 8 10 13 17 21 22 25 27 29 32 33 34 35 37 39 41 41 41 42
18 22 21 27 25 25 28 25 24 23 23 25 24 23 12 9 4 5 7 5 5 5 7 9 10 10 13 15 18 21 25 29 32 33 35 37 38 39 40 41 43 44 44 44
15 17 20 27 24 27 34 27 18 17 15 13 16 13 12 11 7 5 6 7 6 9 11 12 12 12 14 17 20 24 29 32 35 36 37 41 43 44 44 44 45 46 46 46
9 13 17 22 20 30 19 18 17 8 10 18 15 16 8 7 9 8 7 9 10 11 13 12 12 15 17 21 24 28 32 34 37 38 41 44 46 46 46 47 47 48 48 48
17 13 21 22 21 31 34 23 12 9 17 17 20 13 12 10 13 11 7 7 9 11 12 12 13 16 20 25 29 31 36 38 40 43 45 46 46 49 49 50 50 49 49 50
20 21 20 21 24 25 20 18 16 14 34 5 12 12 12 9 13 12 9 10 12 12 13 12 15 19 23 27 30 34 39 42 45 45 45 45 47 48 51 50 50 50 49 51
18 22 17 20 26 34 25 15 10 16 21 17 6 9 9 12 12 14 11 11 10 10 10 16 19 22 25 28 32 38 41 44 43 44 46 46 47 49 50 50 50 51 52 52
18 18 23 23 28 39 11 8 14 18 18 16 9 4 6 8 10 12 12 11 11 12 16 19 21 24 27 31 35 39 42 43 44 46 48 49 49 50 50 52 53 52 52 54
29 22 24 20 23 17 7 14 8 17 19 16 11 7 3 4 7 8 10 11 12 15 18 21 22 26 29 32 34 39 41 43 46 48 50 51 51 51 51 53 54 54 53 54
30 26 32 29 28 23 21 17 19 17 20 19 17 11 6 7 7 8 11 13 15 18 21 23 25 28 32 33 35 37 42 44 47 50 52 52 54 56 54 51 50 52 53 52
31 25 33 39 36 31 29 26 24 19 19 18 15 13 11 11 13 14 15 17 18 21 23 23 26 29 33 35 36 38 42 45 48 50 53 54 53 54 55 51 50 50 46 42
31 33 33 39 27 28 34 28 20 17 17 18 18 18 17 16 17 18 20 21 22 23 24 26 28 32 35 35 36 40 42 45 49 52 53 53 54 53 52 52 53 45 42 40
Wind_Direction
225 224 226 231 236 247 239 247 239 248 248 248 256 267 276 288 289 290 299 316 314 325 332 328 314 320 324 328 327 327 332 334 339 334 330 328 327 330 329 330 330 330 331 331
223 227 232 237 240 241 243 243 241 245 245 250 257 264 277 288 291 296 298 305 306 315 321 327 334 340 335 327 322 326 330 332 332 330 330 330 331 331 331 331 332 331 329 328
223 232 236 241 241 243 243 234 238 242 239 251 244 263 275 283 293 303 307 302 303 309 316 323 323 325 327 327 327 330 330 331 335 336 334 334 336 335 332 331 331 332 332 329
237 240 237 239 242 241 239 250 239 223 236 244 255 260 270 280 286 304 307 308 316 334 354 356 355 356 354 349 349 345 343 342 339 337 336 331 330 327 330 331 335 334 333 331
236 239 239 244 246 251 247 244 233 243 251 255 257 265 269 273 282 290 303 318 336 356 359 2 2 2 2 359 357 358 354 350 347 344 341 334 331 331 332 333 330 332 333 331
242 254 251 248 254 253 237 232 258 260 259 258 257 262 266 267 272 277 285 301 323 341 351 357 359 -0 360 358 356 354 352 348 348 346 343 338 335 332 331 330 328 328 328 329
241 253 249 254 244 240 243 246 255 258 257 261 261 266 277 264 263 257 224 272 318 336 349 353 355 354 353 350 348 346 345 343 343 343 342 340 337 335 333 331 329 328 327 327
238 238 251 258 252 247 246 254 257 258 259 265 268 269 279 267 261 240 230 272 304 321 347 352 353 350 346 345 345 345 345 344 345 344 344 344 342 340 338 336 334 332 330 329
239 243 259 267 269 261 254 255 272 269 274 268 271 278 288 265 255 249 242 265 290 309 329 343 342 343 344 347 348 349 349 348 348 347 346 346 345 342 340 338 337 335 333 331
254 250 256 265 271 280 270 275 267 276 266 270 276 276 277 251 246 241 242 253 287 309 322 335 340 346 352 354 357 359 357 352 351 349 347 346 345 344 343 341 339 337 336 334
269 264 253 266 262 259 265 265 274 277 278 274 278 280 289 245 229 222 234 253 290 304 318 336 352 2 2 2 2 1 359 355 353 354 354 353 351 351 349 347 346 344 343 340
288 277 256 259 278 278 274 272 273 271 276 279 285 287 307 281 226 215 229 253 288 305 334 7 12 8 7 9 13 7 5 5 5 4 3 0 357 355 353 352 350 348 345 343
278 276 263 269 278 282 273 270 277 285 290 280 280 292 314 310 251 216 220 246 271 314 352 358 14 12 17 16 13 6 5 4 3 2 0 360 359 356 354 352 349 347 344 343
284 281 274 267 283 288 274 271 270 277 280 284 282 293 304 313 276 209 199 216 192 161 348 356 0 5 5 4 2 358 358 359 356 355 354 353 353 352 350 348 348 346 345 342
283 275 279 285 292 293 291 285 274 268 277 282 291 284 295 291 235 180 181 181 186 286 328 340 342 342 345 346 347 349 351 351 350 349 348 347 347 346 345 343 343 342 342 341
283 280 285 279 287 290 286 286 285 279 276 280 285 287 306 290 266 190 185 193 229 284 311 324 328 330 332 335 338 343 345 343 342 342 342 341 341 340 340 340 339 338 337 337
280 280 284 282 294 293 283 282 271 278 269 267 267 270 283 284 271 219 208 226 261 295 309 317 321 324 326 330 333 335 338 339 337 338 338 337 337 336 336 336 335 334 334 334
293 286 291 289 298 281 300 298 297 238 247 205 247 280 263 254 277 294 265 261 284 302 311 316 319 324 327 328 329 330 332 334 334 334 334 334 334 334 334 333 332 332 332 331
282 283 283 284 286 279 267 284 300 298 291 203 206 264 277 282 297 291 279 285 301 305 308 311 318 324 326 325 326 327 328 330 331 331 331 332 333 332 332 331 330 330 329 328
275 278 276 283 283 284 301 305 302 310 268 268 206 227 240 267 275 272 263 282 295 303 310 312 318 321 324 325 325 324 325 327 328 330 331 331 332 331 330 330 329 329 328 326
269 272 259 274 281 274 286 309 334 299 307 318 258 228 232 243 256 313 315 305 298 305 310 318 319 319 321 323 323 323 324 324 327 329 330 331 332 331 330 329 329 328 327 325
263 266 270 273 276 272 304 297 285 310 319 324 327 288 228 259 296 303 314 318 313 307 311 315 316 318 320 322 323 322 322 325 328 329 329 330 331 331 331 329 329 328 327 325
266 268 273 264 278 294 299 305 299 314 315 319 317 313 267 245 290 303 308 311 310 310 313 316 318 320 321 323 323 323 324 327 327 328 329 330 330 331 331 330 330 330 330 329
269 268 272 275 277 276 286 288 300 302 307 307 306 307 307 292 299 303 312 312 314 315 315 317 318 319 321 323 324 323 325 327 327 328 328 330 330 330 331 332 333 331 331 331
270 266 267 272 278 289 285 284 288 287 296 301 303 300 291 294 298 306 312 314 313 314 317 319 319 320 321 323 324 326 327 328 328 328 329 330 331 332 332 333 334 334 335 335
265 267 264 272 283 280 284 287 287 278 272 280 287 288 289 289 294 303 308 312 312 314 317 319 321 321 323 325 326 328 329 329 329 329 331 332 332 333 334 334 333 336 337 337